Time,TemperatureF,DewpointF,PressureIn,WindDirection,WindDirectionDegrees,WindSpeedMPH,WindSpeedGustMPH,Humidity,HourlyPrecipIn,Conditions,Clouds,dailyrainin,SolarRadiationWatts/m^2,SoftwareType,DateUTC
2013-03-08 00:10:00,27.8,20.9,23.27,NE,56,3.0,3.0,75,0.00,,,0.00,0,Wunderground v.1.15,2013-03-08 05:10:00,
2013-03-08 00:20:00,27.7,20.8,23.27,NE,49,3.0,5.0,75,0.00,,,0.00,0,Wunderground v.1.15,2013-03-08 05:20:00,
2013-03-08 00:31:00,27.5,20.9,23.27,NE,40,3.0,3.0,76,0.00,,,0.00,0,Wunderground v.1.15,2013-03-08 05:31:00,
2013-03-08 00:40:00,27.4,20.8,23.27,NE,54,2.0,3.0,76,0.00,,,0.00,0,Wunderground v.1.15,2013-03-08 05:40:00,
2013-03-08 00:50:00,27.4,20.8,23.27,NE,51,2.0,2.0,76,0.00,,,0.00,0,Wunderground v.1.15,2013-03-08 05:50:00,
2013-03-08 01:00:00,27.4,20.8,23.27,NE,46,2.0,2.0,76,0.00,,,0.00,0,Wunderground v.1.15,2013-03-08 06:00:00,
2013-03-08 01:10:00,27.2,20.6,23.27,NE,53,2.0,2.0,76,0.00,,,0.00,0,Wunderground v.1.15,2013-03-08 06:10:00,
2013-03-08 01:20:00,27.1,20.5,23.27,NE,52,2.0,2.0,76,0.00,,,0.00,0,Wunderground v.1.15,2013-03-08 06:20:00,
2013-03-08 01:40:00,26.6,20.4,23.27,NE,53,2.0,2.0,77,0.00,,,0.00,0,Wunderground v.1.15,2013-03-08 06:40:00,
2013-03-08 01:50:00,26.6,20.4,23.27,NE,42,2.0,2.0,77,0.00,,,0.00,0,Wunderground v.1.15,2013-03-08 06:50:00,
2013-03-08 02:01:00,26.5,20.3,23.27,NE,54,2.0,2.0,77,0.00,,,0.00,0,Wunderground v.1.15,2013-03-08 07:01:00,
2013-03-08 02:10:00,26.3,20.1,23.27,ENE,57,2.0,5.0,77,0.00,,,0.00,0,Wunderground v.1.15,2013-03-08 07:10:00,
2013-03-08 02:20:00,26.3,20.1,23.27,ENE,60,1.0,2.0,77,0.00,,,0.00,0,Wunderground v.1.15,2013-03-08 07:20:00,
2013-03-08 02:40:00,27.2,20.6,23.27,ENE,61,3.0,4.0,76,0.00,,,0.00,0,Wunderground v.1.15,2013-03-08 07:40:00,
2013-03-08 02:50:00,28.1,20.9,23.27,NE,56,5.0,5.0,74,0.00,,,0.00,0,Wunderground v.1.15,2013-03-08 07:50:00,
2013-03-08 03:10:00,28.0,20.5,23.27,NE,47,4.0,4.0,73,0.00,,,0.00,0,Wunderground v.1.15,2013-03-08 08:10:00,
2013-03-08 03:20:00,26.9,20.0,23.27,NE,56,3.0,3.0,75,0.00,,,0.00,0,Wunderground v.1.15,2013-03-08 08:20:00,
2013-03-08 03:40:00,26.3,20.4,23.27,ENE,59,1.0,2.0,78,0.00,,,0.00,0,Wunderground v.1.15,2013-03-08 08:40:00,
2013-03-08 03:50:00,26.3,20.4,23.27,ENE,60,1.0,1.0,78,0.00,,,0.00,0,Wunderground v.1.15,2013-03-08 08:50:00,
2013-03-08 04:10:00,25.7,19.5,23.27,ENE,60,0.0,0.0,77,0.00,,,0.00,0,Wunderground v.1.15,2013-03-08 09:10:00,
2013-03-08 04:20:00,25.6,19.4,23.27,ENE,61,0.0,0.0,77,0.00,,,0.00,0,Wunderground v.1.15,2013-03-08 09:20:00,
2013-03-08 04:40:00,25.5,19.3,23.27,ENE,60,0.0,0.0,77,0.00,,,0.00,0,Wunderground v.1.15,2013-03-08 09:40:00,
2013-03-08 04:50:00,25.5,19.3,23.27,ENE,60,0.0,0.0,77,0.00,,,0.00,0,Wunderground v.1.15,2013-03-08 09:50:00,
2013-03-08 05:01:00,25.2,19.0,23.27,ENE,60,1.0,1.0,77,0.00,,,0.00,0,Wunderground v.1.15,2013-03-08 10:01:00,
2013-03-08 05:10:00,24.7,18.2,23.27,ENE,60,0.0,0.0,76,0.00,,,0.00,0,Wunderground v.1.15,2013-03-08 10:10:00,
2013-03-08 05:20:00,24.1,17.6,23.27,ENE,60,0.0,0.0,76,0.00,,,0.00,0,Wunderground v.1.15,2013-03-08 10:20:00,
2013-03-08 05:40:00,23.4,17.6,23.27,ENE,60,0.0,0.0,78,0.00,,,0.00,0,Wunderground v.1.15,2013-03-08 10:40:00,
2013-03-08 05:50:00,23.1,17.3,23.27,ENE,60,0.0,0.0,78,0.00,,,0.00,0,Wunderground v.1.15,2013-03-08 10:50:00,
2013-03-08 06:10:00,23.1,17.3,23.27,NNE,24,1.0,1.0,78,0.00,,,0.00,0,Wunderground v.1.15,2013-03-08 11:10:00,
2013-03-08 06:20:00,23.2,16.8,23.27,NNE,25,0.0,0.0,76,0.00,,,0.00,0,Wunderground v.1.15,2013-03-08 11:20:00,
2013-03-08 06:40:00,22.4,15.7,23.28,NNE,26,1.0,1.0,75,0.00,,,0.00,19,Wunderground v.1.15,2013-03-08 11:40:00,
2013-03-08 06:50:00,22.9,16.5,23.28,NNE,31,2.0,2.0,76,0.00,,,0.00,35,Wunderground v.1.15,2013-03-08 11:50:00,
2013-03-08 07:10:00,23.4,16.6,23.28,ENE,57,1.0,2.0,75,0.00,,,0.00,67,Wunderground v.1.15,2013-03-08 12:10:00,
2013-03-08 07:20:00,23.8,17.0,23.28,ENE,61,2.0,4.0,75,0.00,,,0.00,74,Wunderground v.1.15,2013-03-08 12:20:00,
2013-03-08 07:40:00,24.7,17.6,23.28,NE,44,2.0,6.0,74,0.00,,,0.00,134,Wunderground v.1.15,2013-03-08 12:40:00,
2013-03-08 07:50:00,25.2,17.8,23.28,NE,48,2.0,2.0,73,0.00,,,0.00,163,Wunderground v.1.15,2013-03-08 12:50:00,
2013-03-08 08:00:00,25.9,18.1,23.28,ENE,64,3.0,4.0,72,0.00,,,0.00,171,Wunderground v.1.15,2013-03-08 13:00:00,
2013-03-08 08:10:00,26.2,18.1,23.28,NE,42,4.0,5.0,71,0.00,,,0.00,213,Wunderground v.1.15,2013-03-08 13:10:00,
2013-03-08 08:20:00,26.8,18.7,23.28,NE,43,5.0,5.0,71,0.00,,,0.00,232,Wunderground v.1.15,2013-03-08 13:20:00,
2013-03-08 08:40:00,27.1,18.6,23.28,NE,41,5.0,5.0,70,0.00,,,0.00,253,Wunderground v.1.15,2013-03-08 13:40:00,
2013-03-08 08:50:00,27.4,19.2,23.28,NE,42,5.0,5.0,71,0.00,,,0.00,316,Wunderground v.1.15,2013-03-08 13:50:00,
2013-03-08 09:01:00,27.7,19.5,23.28,NE,43,4.0,4.0,71,0.00,,,0.00,306,Wunderground v.1.15,2013-03-08 14:01:00,
2013-03-08 09:10:00,28.1,19.9,23.28,NE,41,4.0,4.0,71,0.00,,,0.00,350,Wunderground v.1.15,2013-03-08 14:10:00,
2013-03-08 09:20:00,28.4,19.9,23.28,ENE,57,4.0,5.0,70,0.00,,,0.00,475,Wunderground v.1.15,2013-03-08 14:20:00,
2013-03-08 09:30:00,28.9,20.3,23.28,NE,53,4.0,4.0,70,0.00,,,0.00,424,Wunderground v.1.15,2013-03-08 14:30:00,
2013-03-08 09:40:00,29.4,20.8,23.28,NNE,31,5.0,5.0,70,0.00,,,0.00,555,Wunderground v.1.15,2013-03-08 14:40:00,
2013-03-08 09:50:00,29.9,21.0,23.29,NE,50,5.0,5.0,69,0.00,,,0.00,561,Wunderground v.1.15,2013-03-08 14:50:00,
2013-03-08 10:00:00,30.5,21.2,23.29,NNE,22,5.0,7.0,68,0.00,,,0.00,617,Wunderground v.1.15,2013-03-08 15:00:00,
2013-03-08 10:10:00,30.5,20.8,23.29,NE,48,6.0,10.0,67,0.00,,,0.00,598,Wunderground v.1.15,2013-03-08 15:10:00,
2013-03-08 10:20:00,30.8,21.1,23.29,NNE,20,6.0,8.0,67,0.00,,,0.00,591,Wunderground v.1.15,2013-03-08 15:20:00,
2013-03-08 10:40:00,31.4,21.7,23.29,NNE,32,6.0,6.0,67,0.00,,,0.00,628,Wunderground v.1.15,2013-03-08 15:40:00,
2013-03-08 10:50:00,31.8,22.1,23.29,NE,42,6.0,6.0,67,0.00,,,0.00,636,Wunderground v.1.15,2013-03-08 15:50:00,
2013-03-08 11:01:00,32.0,21.9,23.29,NE,38,6.0,6.0,66,0.00,,,0.00,647,Wunderground v.1.15,2013-03-08 16:01:00,
2013-03-08 11:10:00,32.4,21.6,23.29,NE,38,5.0,10.0,64,0.00,,,0.00,621,Wunderground v.1.15,2013-03-08 16:10:00,
2013-03-08 11:20:00,32.6,22.5,23.29,NE,40,5.0,10.0,66,0.00,,,0.00,631,Wunderground v.1.15,2013-03-08 16:20:00,
2013-03-08 11:40:00,33.1,22.2,23.29,ENE,69,5.0,5.0,64,0.00,,,0.00,654,Wunderground v.1.15,2013-03-08 16:40:00,
2013-03-08 11:50:00,33.6,22.7,23.29,NE,48,4.0,4.0,64,0.00,,,0.00,647,Wunderground v.1.15,2013-03-08 16:50:00,
2013-03-08 12:01:00,33.7,22.4,23.28,ENE,57,5.0,5.0,63,0.00,,,0.00,679,Wunderground v.1.15,2013-03-08 17:01:00,
2013-03-08 12:10:00,34.0,22.3,23.28,NE,40,5.0,12.0,62,0.00,,,0.00,694,Wunderground v.1.15,2013-03-08 17:10:00,
2013-03-08 12:20:00,34.0,22.3,23.28,NNE,30,5.0,6.0,62,0.00,,,0.00,552,Wunderground v.1.15,2013-03-08 17:20:00,
2013-03-08 12:31:00,34.2,22.1,23.28,NE,38,5.0,5.0,61,0.00,,,0.00,555,Wunderground v.1.15,2013-03-08 17:31:00,
2013-03-08 12:40:00,34.0,21.2,23.28,ENE,65,5.0,6.0,59,0.00,,,0.00,552,Wunderground v.1.15,2013-03-08 17:40:00,
2013-03-08 12:50:00,34.3,21.0,23.28,ENE,59,5.0,5.0,58,0.00,,,0.00,687,Wunderground v.1.15,2013-03-08 17:50:00,
2013-03-08 13:10:00,35.2,21.9,23.28,NE,53,4.0,4.0,58,0.00,,,0.00,508,Wunderground v.1.15,2013-03-08 18:10:00,
2013-03-08 13:20:00,35.5,22.2,23.28,NE,55,4.0,4.0,58,0.00,,,0.00,563,Wunderground v.1.15,2013-03-08 18:20:00,
2013-03-08 13:40:00,36.1,21.5,23.28,ENE,61,4.0,4.0,55,0.00,,,0.00,571,Wunderground v.1.15,2013-03-08 18:40:00,
2013-03-08 13:50:00,36.7,22.5,23.28,ENE,60,3.0,3.0,56,0.00,,,0.00,497,Wunderground v.1.15,2013-03-08 18:50:00,
2013-03-08 14:00:00,37.4,22.3,23.28,ENE,63,3.0,3.0,54,0.00,,,0.00,636,Wunderground v.1.15,2013-03-08 19:00:00,
2013-03-08 14:10:00,38.1,22.5,23.28,ENE,61,3.0,3.0,53,0.00,,,0.00,596,Wunderground v.1.15,2013-03-08 19:10:00,
2013-03-08 14:20:00,37.7,22.1,23.28,NE,34,2.0,5.0,53,0.00,,,0.00,218,Wunderground v.1.15,2013-03-08 19:20:00,
2013-03-08 14:40:00,38.1,22.9,23.28,ENE,76,1.0,1.0,54,0.00,,,0.00,610,Wunderground v.1.15,2013-03-08 19:40:00,
2013-03-08 14:50:00,39.0,22.8,23.28,NE,49,1.0,8.0,52,0.00,,,0.00,592,Wunderground v.1.15,2013-03-08 19:50:00,
2013-03-08 15:10:00,38.2,23.4,23.28,NE,44,0.0,0.0,55,0.00,,,0.00,211,Wunderground v.1.15,2013-03-08 20:10:00,
2013-03-08 15:20:00,38.2,23.9,23.28,NE,44,0.0,4.0,56,0.00,,,0.00,492,Wunderground v.1.15,2013-03-08 20:20:00,
2013-03-08 15:40:00,39.4,22.3,23.28,NE,43,2.0,3.0,50,0.00,,,0.00,378,Wunderground v.1.15,2013-03-08 20:40:00,
2013-03-08 15:50:00,39.4,22.3,23.28,NE,38,2.0,2.0,50,0.00,,,0.00,278,Wunderground v.1.15,2013-03-08 20:50:00,
2013-03-08 16:10:00,39.2,22.6,23.28,NE,40,1.0,1.0,51,0.00,,,0.00,299,Wunderground v.1.15,2013-03-08 21:10:00,
2013-03-08 16:20:00,39.2,21.6,23.28,NE,40,1.0,1.0,49,0.00,,,0.00,262,Wunderground v.1.15,2013-03-08 21:20:00,
2013-03-08 16:40:00,39.2,23.0,23.28,NE,40,0.0,0.0,52,0.00,,,0.00,39,Wunderground v.1.15,2013-03-08 21:40:00,
2013-03-08 16:50:00,38.4,21.8,23.28,NE,40,0.0,0.0,51,0.00,,,0.00,142,Wunderground v.1.15,2013-03-08 21:50:00,
2013-03-08 17:10:00,37.1,22.4,23.28,NE,40,0.0,5.0,55,0.00,,,0.00,32,Wunderground v.1.15,2013-03-08 22:10:00,
2013-03-08 17:20:00,36.7,21.6,23.28,NE,40,0.0,0.0,54,0.00,,,0.00,81,Wunderground v.1.15,2013-03-08 22:20:00,
2013-03-08 17:40:00,35.7,21.1,23.28,NE,40,0.0,0.0,55,0.00,,,0.00,14,Wunderground v.1.15,2013-03-08 22:40:00,
2013-03-08 17:50:00,35.4,20.8,23.28,NE,40,0.0,0.0,55,0.00,,,0.00,7,Wunderground v.1.15,2013-03-08 22:50:00,
2013-03-08 18:10:00,33.3,21.7,23.28,NE,40,0.0,0.0,62,0.00,,,0.00,0,Wunderground v.1.15,2013-03-08 23:10:00,
2013-03-08 18:20:00,32.6,21.8,23.29,NE,40,0.0,0.0,64,0.00,,,0.00,0,Wunderground v.1.15,2013-03-08 23:20:00,
2013-03-08 18:40:00,31.2,21.2,23.29,NE,40,0.0,0.0,66,0.00,,,0.00,0,Wunderground v.1.15,2013-03-08 23:40:00,
2013-03-08 18:50:00,30.6,21.3,23.29,NE,40,0.0,0.0,68,0.00,,,0.00,0,Wunderground v.1.15,2013-03-08 23:50:00,
2013-03-08 19:10:00,29.6,21.3,23.29,NE,40,0.0,0.0,71,0.00,,,0.00,0,Wunderground v.1.15,2013-03-09 00:10:00,
2013-03-08 19:20:00,29.0,21.1,23.29,NE,40,0.0,0.0,72,0.00,,,0.00,0,Wunderground v.1.15,2013-03-09 00:20:00,
2013-03-08 19:40:00,27.7,20.5,23.29,NE,40,0.0,2.0,74,0.00,,,0.00,0,Wunderground v.1.15,2013-03-09 00:40:00,
2013-03-08 19:50:00,27.2,20.3,23.29,NE,40,0.0,0.0,75,0.00,,,0.00,0,Wunderground v.1.15,2013-03-09 00:50:00,
2013-03-08 20:10:00,26.6,20.7,23.29,NE,40,0.0,0.0,78,0.00,,,0.00,0,Wunderground v.1.15,2013-03-09 01:10:00,
2013-03-08 20:20:00,27.4,20.8,23.29,NE,40,0.0,0.0,76,0.00,,,0.00,0,Wunderground v.1.15,2013-03-09 01:20:00,
2013-03-08 20:30:00,27.1,20.8,23.29,NE,40,0.0,0.0,77,0.00,,,0.00,0,Wunderground v.1.15,2013-03-09 01:30:00,
2013-03-08 20:40:00,26.5,20.3,23.29,NE,40,0.0,0.0,77,0.00,,,0.00,0,Wunderground v.1.15,2013-03-09 01:40:00,
2013-03-08 20:50:00,26.0,20.1,23.29,NE,40,0.0,0.0,78,0.00,,,0.00,0,Wunderground v.1.15,2013-03-09 01:50:00,
2013-03-08 21:00:00,25.9,20.6,23.29,NE,40,0.0,0.0,80,0.00,,,0.00,0,Wunderground v.1.15,2013-03-09 02:00:00,
2013-03-08 21:10:00,25.5,20.2,23.29,NE,40,0.0,0.0,80,0.00,,,0.00,0,Wunderground v.1.15,2013-03-09 02:10:00,
2013-03-08 21:20:00,24.1,18.5,23.29,NE,40,0.0,0.0,79,0.00,,,0.00,0,Wunderground v.1.15,2013-03-09 02:20:00,
2013-03-08 21:40:00,23.8,19.1,23.29,NE,40,0.0,2.0,82,0.00,,,0.00,0,Wunderground v.1.15,2013-03-09 02:40:00,
2013-03-08 21:50:00,23.7,18.7,23.29,NE,40,0.0,2.0,81,0.00,,,0.00,0,Wunderground v.1.15,2013-03-09 02:50:00,
2013-03-08 22:10:00,23.1,18.4,23.29,NE,40,0.0,0.0,82,0.00,,,0.00,0,Wunderground v.1.15,2013-03-09 03:10:00,
2013-03-08 22:20:00,23.2,18.8,23.29,NE,40,0.0,0.0,83,0.00,,,0.00,0,Wunderground v.1.15,2013-03-09 03:20:00,
2013-03-08 22:40:00,22.4,17.7,23.29,NE,40,0.0,0.0,82,0.00,,,0.00,0,Wunderground v.1.15,2013-03-09 03:40:00,
2013-03-08 22:50:00,22.1,17.7,23.29,NE,40,0.0,0.0,83,0.00,,,0.00,0,Wunderground v.1.15,2013-03-09 03:50:00,
2013-03-08 23:01:00,21.7,17.6,23.29,NE,40,0.0,0.0,84,0.00,,,0.00,0,Wunderground v.1.15,2013-03-09 04:01:00,
2013-03-08 23:10:00,21.2,17.1,23.29,NE,40,0.0,0.0,84,0.00,,,0.00,0,Wunderground v.1.15,2013-03-09 04:10:00,
2013-03-08 23:20:00,20.7,16.6,23.29,NE,40,0.0,0.0,84,0.00,,,0.00,0,Wunderground v.1.15,2013-03-09 04:20:00,
2013-03-08 23:40:00,19.8,15.7,23.29,NE,40,0.0,0.0,84,0.00,,,0.00,0,Wunderground v.1.15,2013-03-09 04:40:00,
2013-03-08 23:50:00,19.0,15.0,23.29,NE,40,0.0,0.0,84,0.00,,,0.00,0,Wunderground v.1.15,2013-03-09 04:50:00,